Terminal Aerodrome Forecast
Issued by NWS Wichita, KS

Home | Current Version | Previous Version | Graphics & Text | Print | Product List | Glossary On
Versions: 1 2 3 4 5 6 7 8 9 10 11 12 13
000
FTUS43 KICT 311120
TAFICT
TAF
KICT 311120Z 3112/0112 VRB03KT P6SM SCT070
      TEMPO 3112/3114 5SM BR SCT040
     FM311700 16006KT P6SM SCT040=

USA.gov is the U.S. government's official web portal to all federal, state and local government web resources and services.